STARLINK-33819, 63494

Orbit data source: Space-Track

STARLINK-33819, 63494 is a payload satellite owned by SpaceX/Seattle (US) in LEO that was launched on Mon, 07 Apr 2025 UTC via an FALCON 9 launch vehicle from the Air Force Western Test Range (AFWTR). Payload-class satellites include a variety of spacecraft equipped with specific instruments for various scientific and technological missions. These include communications satellites like Starlink; space stations such as the ISS; scientific satellites like the Hubble; Earth observation satellites from companies like Planet Labs, Umbra, and HawkEye 360; GPS; miniature CubeSats for education and research; and military/defense satellites.

Loading next visibility...
Identifier
63494, 2025-071B
Orbit
LEO
Last TLE update
1 day ago
Origin
Manufacturer
SpaceX/Seattle
Mission
Operational spacecraft
Bus & Motor
STARLINK V2MO, Unknown motor
Mass
575 kg wet, ~530 kg dry
Launch date (UTC)
2025-04-07 (3 weeks ago)
Launch vehicle
FALCON 9
Launch site
Air Force Western Test Range (AFWTR)
Object type
Payload
Rocket body
Debris
Shape & HBR
Unknown
Radar Cross Section
Large (>1 m²)

Expand to show TLE details & history

TLE from 1 day ago
0 STARLINK-33819
1 63494U 25071B   25119.16667824 -.01479007  00000-0 -20454-1 0  9995
2 63494  53.1592 166.7237 0001095  92.5360 222.0031 15.59544670  4511
Epoch: 2025-04-29T04:00Z
Definitive object data (Epoch: 2025-04-29T04:00:00.999Z)
Latitude
-34.99743°
Longitude
-142.09182°
Altitude
400.645 km
Speed
7.67 km/s
True Right ascension
09h 01m 07s
True Declination
-34° 49' 39"
Sunlit
Object was in daylight at TLE epoch
Visualization TLE readout
Latitude
2.47523°
Longitude
61.40901°
Altitude
400.78 km
Speed
7.671 km/s
Apparent Right ascension
01h 21m 08s
Apparent Declination
-28° 14' 48"
Sunlit
Object is in daylight
Visualization observer readout
Local Sidereal Time
17:46:37
Azimuth
99.594° ESE
Elevation
-35.065°
Doppler factor
1
Orbital elements
Apogee altitude
389.975 km
Perigee altitude
388.493 km
Semi-major axis
6,767.371 km
Eccentricity
0.0001095
Inclination
53.1592°
RAAN
166.7237°
Arg. of periapsis
92.536°
True anomaly
221.9947°
Mean anomaly
222.0031°
Eccentric anomaly
221.9989°
Mean motion
3.89864 °/min
BSTAR
-0.020454
Orbital period
92.34 mins
Loading maneuver chart data...
Loading SW <> Apogee altitude chart data...
Loading historical data...
Loading historical data...
Loading historical data...
Loading historical data...
Loading historical data...
Loading historical data...
Loading historical data...

STARLINK-33819 Visibility forecast

Observer location: undefined°, undefined°

Span
Click to sort rows by Start time (UTC) header in descending order
Start Az.
Max El. time (UTC)
Max El. Az.
Max El.
End time (UTC)
End Az.
4 mins2025-04-30 11:27:39.019Z338.838° N2025-04-30 11:29:39.019Z25.724° NE22.385°2025-04-30 11:31:39.019Z76.639° E
4 mins2025-04-30 13:04:39.019Z276.496° WNW2025-04-30 13:05:39.019Z246.364° WSW29.1°2025-04-30 13:08:39.019Z161.169° S
4 mins2025-05-01 05:43:39.019Z255.205° W2025-05-01 05:45:39.019Z358.329° N36.965°2025-05-01 05:47:39.019Z38.923° NE
|